[[{"header":{"parameterUnit":"m.s-1","parameterCategory":1,"la1":30.2991,"la2":30.254,"lo1":-89.0895,"lo2":-89.0444,"dy":0.0017,"dx":0.0017,"nx":28,"ny":28,"refTime":"2026-03-05T03:00:00:Z","depth":0,"parameterNumber":2,"parameterNumberName":"U-component_of_WINDS"},"data":[0,0,0,0,0,0,0,0,0,0,0,0,0,0,0,0,0,0,0,0,0,0,0,0,0,0,0,0,0,0,0,0,0,0,0,0,0,0,0,0,0,0,0,0,0,0,0,0,0,0,0,0,0,0,0,0,0,0,-3.3564,-3.3564,0,-3.3606,-3.3607,-3.3607,-3.3573,-3.3571,-3.357,-3.3568,-3.3612,-3.3615,-3.3617,0,0,0,0,0,0,0,0,0,0,0,0,0,-3.3454,-3.3456,-3.3564,-3.3564,-3.3565,-3.3606,-3.3607,-3.3607,-3.3573,-3.3571,-3.3569,-3.3568,-3.3611,-3.3614,-3.3617,0,0,0,0,0,0,0,0,0,0,0,0,0,-3.35,-3.3457,-3.3564,-3.3553,-3.3552,-3.3606,-3.3607,-3.3607,-3.3573,-3.3571,-3.3569,-3.3567,-3.361,-3.3614,-3.3618,-3.3685,0,0,-3.3629,-3.3631,0,0,0,0,0,0,0,0,-3.3497,-3.3504,-3.3554,-3.3553,-3.3553,-3.3582,-3.3584,-3.3633,-3.3574,-3.3565,-3.3568,-3.3566,-3.3604,-3.3608,-3.3621,-3.3687,-3.3689,-3.363,-3.3632,-3.3634,-3.3635,0,0,0,0,0,0,0,-3.3494,-3.3502,-3.358,-3.3554,-3.3554,-3.3546,-3.355,-3.3593,-3.3596,-3.3566,-3.3563,-3.3569,-3.3603,-3.3617,-3.3622,-3.369,-3.363,-3.3633,-3.3635,-3.3637,-3.3814,-3.3817,0,0,0,0,0,0,-3.3492,-3.3499,-3.3579,-3.3582,-3.3519,-3.355,-3.3554,-3.3575,-3.3596,-3.3597,-3.3571,-3.3567,-3.3612,-3.3617,-3.3623,-3.3703,-3.3634,-3.3637,-3.3639,-3.3812,-3.3815,-3.3817,0,0,0,0,0,0,-3.349,-3.3499,-3.3577,-3.354,-3.3549,-3.3554,-3.3577,-3.3577,-3.3591,-3.3599,-3.36,-3.3584,-3.361,-3.3618,-3.367,-3.3704,-3.3639,-3.3642,-3.3809,-3.3813,-3.3816,-3.3864,0,0,0,0,0,0,-3.3487,-3.3499,-3.3524,-3.3541,-3.3551,-3.3623,-3.3579,-3.3579,-3.3597,-3.3593,-3.3612,-3.3613,-3.3609,-3.3665,-3.3674,-3.3708,-3.3645,-3.3806,-3.3811,-3.3815,-3.3859,-3.3869,-3.3877,0,0,0,0,0,-3.3483,-3.3535,-3.3525,-3.3535,-3.3583,-3.3625,-3.3631,-3.3625,-3.36,-3.3626,-3.3632,-3.3613,-3.37,-3.367,-3.368,-3.3716,-3.3804,-3.3809,-3.3815,-3.3855,-3.3867,-3.3877,0,0,0,0,0,0,-3.3522,-3.3537,-3.3526,-3.3586,-3.3605,-3.3619,-3.3651,-3.3638,-3.3664,-3.3659,-3.365,-3.3655,-3.371,-3.3719,-3.3686,-3.3783,-3.3748,-3.3755,-3.3775,-3.3786,-3.3795,-3.3791,-3.3648,0,0,0,0,0,-3.3537,-3.357,-3.3582,-3.3634,-3.3644,-3.3646,-3.3664,-3.3658,-3.3678,-3.3685,-3.3695,-3.3714,-3.3746,-3.3767,-3.3797,-3.3861,-3.3865,-3.3891,-3.39,-3.3907,-3.3914,-3.3949,-3.3961,-3.3836,-3.3836,-3.3835,0,0,-3.3569,-3.3582,-3.3603,-3.3642,-3.3656,-3.369,-3.3653,-3.3691,-3.3717,-3.3691,-3.3741,-3.3749,-3.3771,-3.383,-3.3856,-3.3838,-3.395,-3.3914,-3.392,-3.3922,-3.3956,-3.3968,-3.3979,-3.3839,-3.3839,-3.3838,0,0,-3.3645,-3.3659,-3.3703,-3.3718,-3.374,-3.3741,-3.3752,-3.377,-3.3774,-3.3825,-3.3806,-3.3838,-3.3892,-3.3908,-3.3924,-3.4009,-3.3993,-3.4019,-3.4064,-3.4099,-3.4109,-3.4118,-3.4148,-3.4159,-3.4026,-3.4026,-3.4026,0,-3.3682,-3.3734,-3.3727,-3.3767,-3.3785,-3.3764,-3.381,-3.3825,-3.3855,-3.3868,-3.3848,-3.3917,-3.393,-3.3993,-3.4014,-3.4028,-3.404,-3.4016,-3.4108,-3.4117,-3.4125,-3.4153,-3.4165,-3.4029,-3.4028,-3.4028,-3.4028,0,-3.3778,-3.3814,-3.3848,-3.3878,-3.39,-3.3942,-3.3943,-3.3966,-3.3959,-3.3963,-3.4015,-3.4031,-3.4063,-3.4078,-3.4071,-3.4141,-3.4129,-3.4109,-3.4073,-3.414,-3.4166,-3.4177,-3.4033,-3.4032,-3.4031,-3.403,0,0,-3.3877,-3.3905,-3.3917,-3.3931,-3.3955,-3.3983,-3.4025,-3.4058,-3.4078,-3.41,-3.4135,-3.4183,-3.4165,-3.4183,-3.4179,-3.4209,-3.4276,-3.4185,-3.4186,-3.4201,-3.4353,-3.4367,-3.438,-3.4266,-3.4268,-3.427,-3.4351,0,-3.3954,-3.4026,-3.4023,-3.4092,-3.4125,-3.4108,-3.4144,-3.4164,-3.4169,-3.4199,-3.4206,-3.4239,-3.4213,-3.4224,-3.4254,-3.4261,-3.4306,-3.4256,-3.4299,-3.43,-3.4292,-3.4394,-3.4408,-3.4484,-3.4362,-3.4363,-3.4365,0,-3.4052,-3.4078,-3.415,-3.417,-3.4184,-3.4217,-3.4247,-3.4276,-3.4298,-3.43,-3.4321,-3.4312,-3.4355,-3.432,-3.438,-3.4346,-3.4364,-3.4371,-3.4374,-3.4376,-3.4335,-3.4398,-3.4508,-3.4519,-3.4381,-3.438,-3.4379,0,-3.4116,-3.417,-3.422,-3.4232,-3.4257,-3.4281,-3.4292,-3.4312,-3.4332,-3.4359,-3.4372,-3.4404,-3.4421,-3.4446,-3.4446,-3.442,-3.4508,-3.4472,-3.451,-3.451,-3.4528,-3.4526,-3.4641,-3.4542,-3.4542,-3.4541,-3.4541,0,-3.4201,-3.4245,-3.4249,-3.4279,-3.4329,-3.4326,-3.4376,-3.4385,-3.4403,-3.4436,-3.4423,-3.4454,-3.4453,-3.4485,-3.4486,-3.4536,-3.4544,-3.4547,-3.4546,-3.4547,-3.4547,-3.4557,-3.4552,-3.4545,-3.4544,-3.4543,-3.4543,0,-3.428,-3.4284,-3.4337,-3.4357,-3.4363,-3.4399,-3.4416,-3.4446,-3.4451,-3.4493,-3.4502,-3.4511,-3.4548,-3.4552,-3.4595,-3.4595,-3.4655,-3.465,-3.4648,-3.4646,-3.4685,-3.4681,-3.4809,-3.4826,-3.4717,-3.4718,-3.4719,0,-3.4333,-3.4367,-3.439,-3.4411,-3.4424,-3.4458,-3.4479,-3.4478,-3.4501,-3.4529,-3.4556,-3.4592,-3.462,-3.468,-3.4691,-3.4724,-3.4718,-3.4761,-3.4723,-3.4723,-3.4718,-3.4716,-3.4719,-3.4768,-3.4769,-3.477,-3.4771,0,-3.4426,-3.4427,-3.4457,-3.4489,-3.4514,-3.4539,-3.4563,-3.4581,-3.4583,-3.4609,-3.4647,-3.4669,-3.4714,-3.475,-3.4783,-3.4795,-3.4784,-3.4783,-3.4794,-3.4794,-3.4791,-3.4793,-3.4667,-3.478,-3.4779,-3.4778,-3.4778,-3.4777,-3.4493,-3.4523,-3.4544,-3.4579,-3.4597,-3.4619,-3.4648,-3.4658,-3.469,-3.4725,-3.4724,-3.4766,-3.4789,-3.4832,-3.4847,-3.488,-3.4866,-3.4881,-3.4885,-3.4889,-3.4892,-3.4788,-3.4887,-3.4886,-3.4886,-3.4886,-3.4886,0,-3.4585,-3.4599,-3.4631,-3.4664,-3.4692,-3.468,-3.4706,-3.4729,-3.4766,-3.4789,-3.4817,-3.4862,-3.4897,-3.4912,-3.4946,-3.497,-3.4966,-3.498,-3.4977,-3.498,-3.4903,-3.489,-3.4982,-3.4982,-3.4982,-3.4982,-3.4982,-3.4982,-3.4636,-3.4686,-3.469,-3.4748,-3.4762,-3.4803,-3.4818,-3.484,-3.4857,-3.4907,-3.4937,-3.4946,-3.4966,-3.5002,-3.5035,-3.5038,-3.5051,-3.5067,-3.5068,-3.4995,-3.4985,-3.4976,-3.4964,-3.507,-3.507,-3.5142,-3.5142,-3.5143]},{"header":{"parameterUnit":"m.s-1","parameterCategory":1,"la1":30.2991,"la2":30.254,"lo1":-89.0895,"lo2":-89.0444,"dy":0.0017,"dx":0.0017,"nx":28,"ny":28,"refTime":"2026-03-05T03:00:00:Z","depth":0,"parameterNumber":3,"parameterNumberName":"V-component_of_WINDS"},"data":[0,0,0,0,0,0,0,0,0,0,0,0,0,0,0,0,0,0,0,0,0,0,0,0,0,0,0,0,0,0,0,0,0,0,0,0,0,0,0,0,0,0,0,0,0,0,0,0,0,0,0,0,0,0,0,0,0,0,2.0903,2.0904,0,2.0994,2.0995,2.0996,2.1074,2.1075,2.1076,2.1077,2.1165,2.1167,2.1168,0,0,0,0,0,0,0,0,0,0,0,0,0,2.0796,2.0797,2.0903,2.0904,2.0906,2.0994,2.0995,2.0996,2.1074,2.1075,2.1076,2.1077,2.1165,2.1167,2.1169,0,0,0,0,0,0,0,0,0,0,0,0,0,2.086,2.0798,2.0903,2.0955,2.0961,2.0994,2.0995,2.0997,2.1074,2.1075,2.1077,2.1078,2.1164,2.1167,2.1169,2.1156,0,0,2.1176,2.1177,0,0,0,0,0,0,0,0,2.0856,2.0864,2.0946,2.0952,2.0958,2.1024,2.099,2.105,2.1074,2.1031,2.1077,2.1078,2.1117,2.1123,2.1137,2.116,2.1164,2.1176,2.1177,2.1178,2.1179,0,0,0,0,0,0,0,2.0852,2.086,2.0939,2.0947,2.0954,2.0973,2.0984,2.1002,2.1065,2.1035,2.104,2.105,2.112,2.1135,2.114,2.1165,2.1176,2.1178,2.1179,2.118,2.1186,2.1185,0,0,0,0,0,0,2.084,2.0856,2.0936,2.0942,2.0909,2.0974,2.0986,2.1001,2.1065,2.1076,2.1049,2.1054,2.113,2.1137,2.1143,2.1135,2.1178,2.1181,2.1182,2.1188,2.1186,2.1185,0,0,0,0,0,0,2.0837,2.0846,2.0933,2.0901,2.0913,2.0975,2.0991,2.1003,2.1017,2.1076,2.1088,2.1052,2.1132,2.114,2.1154,2.1139,2.1182,2.1184,2.1189,2.1187,2.1185,2.1117,0,0,0,0,0,0,2.0834,2.0845,2.084,2.09,2.0915,2.0941,2.099,2.1003,2.1021,2.1028,2.1082,2.1092,2.1133,2.115,2.1156,2.1143,2.1185,2.1191,2.1188,2.1186,2.1121,2.1113,2.1107,0,0,0,0,0,2.0829,2.0816,2.084,2.0849,2.0911,2.094,2.0949,2.0997,2.102,2.1017,2.1055,2.1091,2.114,2.115,2.1158,2.1146,2.1192,2.1189,2.1186,2.1124,2.1115,2.1107,0,0,0,0,0,0,2.0751,2.0825,2.0852,2.0857,2.0892,2.0954,2.095,2.0985,2.1013,2.1018,2.1076,2.1087,2.1095,2.1122,2.1132,2.1139,2.1171,2.1169,2.1121,2.1113,2.1106,2.1099,2.1187,0,0,0,0,0,2.0734,2.0753,2.0816,2.0815,2.0831,2.0888,2.0902,2.0937,2.0975,2.099,2.1029,2.1063,2.1087,2.1101,2.1126,2.1125,2.1139,2.1121,2.1114,2.1108,2.1106,2.111,2.1104,2.1176,2.1176,2.1176,0,0,2.07,2.0743,2.075,2.08,2.0832,2.085,2.0899,2.0915,2.093,2.0992,2.1008,2.1038,2.108,2.1088,2.1093,2.111,2.1089,2.1104,2.1099,2.1101,2.1107,2.11,2.1094,2.1174,2.1174,2.1175,0,0,2.0647,2.0681,2.0685,2.0716,2.0764,2.0802,2.0803,2.086,2.0883,2.0901,2.0949,2.0966,2.1004,2.1034,2.1054,2.1016,2.105,2.1022,2.0984,2.0988,2.0983,2.0978,2.0966,2.0961,2.102,2.102,2.102,0,2.0598,2.0628,2.0682,2.0697,2.0718,2.0778,2.0783,2.081,2.0862,2.0875,2.0895,2.0947,2.098,2.0996,2.0987,2.1001,2.1004,2.1016,2.0979,2.0975,2.0971,2.0961,2.0956,2.1016,2.1016,2.1017,2.1017,0,2.0567,2.0587,2.0585,2.0637,2.0658,2.0667,2.0723,2.0737,2.0771,2.0807,2.0826,2.0867,2.0903,2.0909,2.0941,2.0931,2.0941,2.0968,2.1002,2.096,2.0951,2.0948,2.1011,2.1012,2.1013,2.1014,0,0,2.0465,2.055,2.0548,2.0574,2.0632,2.0649,2.0662,2.0699,2.0711,2.0745,2.0759,2.0792,2.0819,2.0842,2.0878,2.0881,2.0851,2.0909,2.0911,2.0898,2.0845,2.0824,2.0819,2.0874,2.0874,2.0873,2.0842,0,2.0423,2.0451,2.0502,2.0514,2.0534,2.0593,2.0604,2.0641,2.0676,2.0698,2.0736,2.076,2.0793,2.0808,2.0813,2.0853,2.0841,2.0856,2.0887,2.0888,2.0876,2.0814,2.0792,2.076,2.0839,2.0838,2.0838,0,2.0377,2.0412,2.0426,2.0486,2.0497,2.0506,2.0546,2.0566,2.061,2.0635,2.0662,2.0703,2.072,2.075,2.0776,2.0785,2.0801,2.0823,2.0823,2.0828,2.0861,2.0819,2.0751,2.0747,2.0833,2.0833,2.0833,0,2.0304,2.0354,2.037,2.039,2.0459,2.0465,2.0495,2.054,2.056,2.0594,2.0608,2.0643,2.0662,2.0689,2.0738,2.0755,2.0758,2.0792,2.078,2.0779,2.0778,2.0778,2.0713,2.0787,2.0787,2.0787,2.0787,0,2.0252,2.0259,2.0339,2.0348,2.0359,2.0417,2.0425,2.046,2.05,2.0518,2.0569,2.0585,2.0648,2.0671,2.0709,2.0726,2.0733,2.0755,2.0765,2.0751,2.0748,2.0762,2.0766,2.0786,2.0786,2.0786,2.0786,0,2.0172,2.0225,2.0247,2.0313,2.033,2.0334,2.0391,2.0403,2.0442,2.0464,2.0472,2.0533,2.0563,2.0615,2.0658,2.0684,2.0694,2.071,2.068,2.0686,2.0672,2.0673,2.0615,2.0611,2.0685,2.0684,2.0684,0,2.0136,2.0143,2.0211,2.0228,2.0256,2.0281,2.0303,2.0362,2.0382,2.0435,2.044,2.0475,2.0506,2.0551,2.0599,2.0633,2.0652,2.0629,2.0657,2.0644,2.0654,2.0653,2.0655,2.0623,2.0622,2.0621,2.062,0,2.0067,2.0094,2.0124,2.0164,2.019,2.0224,2.026,2.027,2.0337,2.0357,2.039,2.0414,2.0461,2.0495,2.0537,2.0567,2.0605,2.0611,2.0611,2.0597,2.0579,2.0591,2.0664,2.0612,2.0613,2.0614,2.0614,2.0614,2.0009,2.002,2.007,2.0103,2.0137,2.0171,2.0186,2.0229,2.0257,2.0302,2.0334,2.0365,2.0411,2.0472,2.05,2.0525,2.0542,2.054,2.054,2.0539,2.0535,2.0575,2.0532,2.0533,2.0533,2.0533,2.0533,0,1.9945,1.9981,2.001,2.0061,2.0088,2.0123,2.0166,2.0185,2.0212,2.0253,2.0284,2.0322,2.0356,2.0408,2.0446,2.0456,2.0475,2.0464,2.0465,2.0471,2.0516,2.0514,2.0449,2.0449,2.0449,2.0449,2.0449,2.0449,1.9914,1.9935,1.9968,2.0007,2.0043,2.0075,2.0097,2.0129,2.0162,2.0203,2.0233,2.0267,2.0313,2.0355,2.0388,2.0403,2.0415,2.0399,2.0419,2.046,2.0468,2.0475,2.0474,2.0401,2.0401,2.0373,2.0372,2.0372]}]]